Details From SMJP - Paramaribo Johan A Pengel Intl
To TNCM - St Maarten - Princess Juliana Intl
Flight Number -
Tags decoded
Created
Modified
Stats Distance 916 nm / 1,697 km
Max Altitude 0 ft / 0 m
Waypoints 7
Social Downloads 7
Likes 0
Share VATSIM

Download

Looking for another format? Having issues loading an existing format? Contact us
Advertisement - Login to hide

Notes

Requested: SMJP GEKOS DAGTO IBERT KAISO AXITA ROMKI ANU ELOPO TNCM Unmatched points: DAGTO AXITA ROMKI

Route

SMJP GEKOS IBERT KAISO ANU ELOPO TNCM

ID Type Via Altitude (ft/m) Position (lat/lon) Dist (leg/tot) Name
O SMJP APT - 0 / 0 5.45283 / -55.18778 - / 0 nm Paramaribo Johan A Pengel Intl
GEKOS FIX - 0 / 0 6.93902 / -57.00000 140 / 140 nm
IBERT FIX - 0 / 0 7.81716 / -58.08032 83 / 223 nm
KAISO FIX - 0 / 0 8.91972 / -58.50722 70 / 294 nm
ANU NDB - 0 / 0 17.12588 / -61.80017 529 / 823 nm V C BIRD NDB
ELOPO FIX - 0 / 0 17.65006 / -62.55439 53 / 876 nm
O TNCM APT - 0 / 0 18.04089 / -63.10897 39 / 916 nm St Maarten - Princess Juliana Intl

Altitude Profile

Advertisement - Login to hide

Weather


0- 5 10 15 20 25 30 35+ Temperature / °C

Clouds and Precipitation
Forecast for 2019-11-13 18:00 UTC. Updated 2 hours ago

Ground ~20,000 ft ~40,000 ft Winds

SMJP

Details ICAO SMJP (PBM)
Name Johan Adolf Pengel Intl
Region Suriname
Timezone America/Paramaribo (UTC-3.0)
Stats Elevation 59 ft / 18 m (AMSL)
Location 5.452850° -55.187800°
Runways 1
Magnetic Variation 17.620° W

METAR

SMJP 131737Z 18005KT 2500 SHRA FEW015CB SCT025 27/25 Q1008 BECMG TL1750 5000

Decode

TAF

TAF SMJP 131000Z 1312/1412 09008KT 9999 SCT015 TX33/1317Z TN24/1409Z TEMPO 1317/1320 4000 SHRA FEW018CB SCT020 BECMG 1400/1402 08004KT

Decode

Departure Runways

ID Width Length Bearing (true/mag) Surface Threshold Overrun Markings Lighting
11 151 ft / 46 m 11,428 ft / 3,483 m 89.69° / 107.31° ASPHALT 0 ft / 0 m 230 ft / 70 m PREC-APP EDGE THRESHOLD MALSF REIL-OMNI
29 151 ft / 46 m 11,428 ft / 3,483 m 269.69° / 287.31° ASPHALT 0 ft / 0 m 197 ft / 60 m APP EDGE THRESHOLD MALSF REIL-OMNI

TNCM

Details ICAO TNCM (SXM)
Name Princess Juliana Intl
Region Caribbean Netherlands, Aruba, Curaçao, Sint Maarten
Timezone Unknown
Stats Elevation 14 ft / 4 m (AMSL)
Location 18.040900° -63.108900°
Runways 1
Magnetic Variation 14.378° W

METAR

TNCM 131700Z 11009KT 070V130 9999 FEW020 31/22 Q1013 NOSIG

Decode

TAF

TNCM 131138Z 1312/1412 07004KT P6SM FEW021 FM131400 10012KT P6SM VCSH SCT020 FM132100 08006KT P6SM FEW019

Decode

Destination Runways

ID Width Length Bearing (true/mag) Surface Threshold Overrun Markings Lighting
10 148 ft / 45 m 7,553 ft / 2,302 m 81.44° / 95.82° ASPHALT 331 ft / 101 m 164 ft / 50 m PREC-APP EDGE THRESHOLD REIL-OMNI
28 148 ft / 45 m 7,553 ft / 2,302 m 261.45° / 275.82° ASPHALT 0 ft / 0 m 200 ft / 61 m APP EDGE THRESHOLD

Popular Alternatives